User: anonymous   Login
Location: Mount Wilson Observatory
(34.2257°N, 118.0571°W)
Time: 17:56:19
(UTC-08:00)
Language:

ATLAS 3B CENTAUR R/B - Orbit

View from above orbital plane
View from above orbital plane
View from above satellite
View from above satellite

Ground track
Ground track

The orbit data is extracted from the following two-line orbital elements,

1 28118U 03057B   15058.20791772  .00063761  00000-0  12553-2 0  9990
2 28118 028.1600 331.5292 3697491 224.1502 331.1619 08.09554748215753
Epoch (UTC): 27 February 2015 04:59:24
Eccentricity: 0.3697491
inclination: 28.1600°
perigee height: 225 km
apogee height: 7972 km
right ascension of ascending node: 331.5292°
argument of perigee: 224.1502°
revolutions per day: 8.09554748
mean anomaly at epoch: 331.1619°
orbit number at epoch: 21575

The dashed part of the orbit path shows where the satellite is in the earth's shadow,  

DLR